Location: Bay Ridge
(40.6340°N, 74.0146°W)
Time: 15:40:43
(UTC+00:00)

Cosmos 2123 Rocket - Pass Details

Date: 15 November 2019
Orbit: 961 x 992 km, 82.9° (Epoch: 09 December)

Event Time Altitude Azimuth Distance (km) Brightness Sun altitude
Exits shadow 09:34:53 51° 254° (WSW) 1,199 4.0 -24.2°
Drops below altitude 10° 09:40:25 10° 194° (SSW) 2,704 6.2 -23.1°
Sets 09:42:58 0° 190° (S) 3,652 7.0 -22.7°
